Home > Weather > Sumqayit > Past weeks

Flag for Azerbaijan Weather for the Past 2 Weeks in Sumqayit, Azerbaijan

Now
39 °F

Scattered clouds.


Feels Like: 34 °F
Forecast: 35 / 44 °F
Wind: 8 mph from East

Location: Baku / Bine Airport

Current Time: Feb 9, 2016 at 4:56:39 PM

Latest Report: Feb 9, 2016 at 4:00 PM


Visibility: N/A

Pressure: 30.54 "Hg

Humidity: 61%

Dew point: 27 °F

Location of SumqayitLocation

Historic Weather in Sumqayit — Graph

°F

Sumqayit Temperature Yesterday

Maximum temperature yesterday: 41 °F (at 12:30 AM)
Minimum temperature yesterday: 37 °F (at 9:30 PM)
Average temperature yesterday: 39 °F

High & Low Weather Summary for the Past Weeks

 TemperatureHumidityPressure
High61 °F (Feb 5, 2:00 PM)100% (Jan 25, 5:00 PM)30.57 "Hg (Jan 25, 5:00 PM)
Low25 °F (Jan 28, 1:30 AM)36% (Feb 5, 1:30 PM)29.74 "Hg (Feb 6, 7:00 AM)
Average41 °F78%30.19 "Hg
* Reported Jan 25 3:00 PM — Feb 9 3:30 PM, Sumqayit, Weather by CustomWeather, © 2016

Note: Actual official high and low records may vary slightly from our data, if they occured in-between our weather recording intervals... More about our weather records

Advertising

Sumqayit Weather History for the Previous 24 Hours

 ConditionsComfort  
Time TempWeatherWind HumidityBarometerVisibility
3:30 PM
Tue, Feb 9
41 °FScattered clouds.5 mph57%30.54 "HgN/A
2:30 PM43 °FScattered clouds.7 mph53%30.54 "HgN/A
2:00 PM41 °FPartly sunny.8 mph53%30.54 "HgN/A
1:30 PM43 °FPartly sunny.3 mph49%30.54 "HgN/A
1:00 PM41 °FPartly sunny.5 mph49%30.57 "HgN/A
12:00 PM41 °FPartly sunny.8 mph53%30.57 "HgN/A
11:30 AM41 °FPartly sunny.9 mph53%30.57 "HgN/A
11:00 AM41 °FPartly sunny.8 mph53%30.57 "HgN/A
10:00 AM39 °FPartly sunny.9 mph61%30.57 "HgN/A
9:30 AM39 °FPartly sunny.8 mph56%30.57 "HgN/A
9:00 AM39 °FPartly sunny.7 mph56%30.57 "HgN/A
8:30 AM37 °FPartly sunny.6 mph60%30.57 "HgN/A
7:30 AM37 °FOvercast.7 mph60%30.54 "HgN/A
7:00 AM37 °FOvercast.8 mph60%30.54 "HgN/A
6:30 AM37 °FOvercast.7 mph60%30.54 "HgN/A
6:00 AM37 °FOvercast.7 mph60%30.54 "HgN/A
5:30 AM37 °FOvercast.8 mph60%30.54 "HgN/A
5:00 AM37 °FOvercast.8 mph60%30.54 "HgN/A
4:30 AM37 °FOvercast.8 mph60%30.54 "HgN/A
4:00 AM37 °FPassing clouds.8 mph65%30.54 "HgN/A
3:30 AM37 °FPassing clouds.9 mph60%30.54 "HgN/A
3:00 AM37 °FPassing clouds.9 mph60%30.54 "HgN/A
2:30 AM37 °FPassing clouds.8 mph60%30.54 "HgN/A
2:00 AM37 °FPassing clouds.8 mph60%30.54 "HgN/A
1:30 AM37 °FPassing clouds.7 mph65%30.54 "HgN/A
1:00 AM37 °FPassing clouds.10 mph60%30.54 "HgN/A
12:30 AM37 °FPassing clouds.12 mph60%30.54 "HgN/A
12:00 AM37 °FPassing clouds.14 mph60%30.54 "HgN/A
11:30 PM
Mon, Feb 8
37 °FPassing clouds.15 mph60%30.54 "HgN/A
11:00 PM37 °FPassing clouds.14 mph60%30.54 "HgN/A
10:30 PM37 °FPassing clouds.15 mph60%30.54 "HgN/A
10:00 PM37 °FOvercast.13 mph60%30.54 "HgN/A
9:30 PM37 °FOvercast.12 mph60%30.51 "HgN/A
9:00 PM39 °FPassing clouds.14 mph61%30.51 "HgN/A
8:30 PM39 °FPassing clouds.17 mph56%30.51 "HgN/A
8:00 PM39 °FPassing clouds.15 mph52%30.51 "HgN/A
7:30 PM39 °FPassing clouds.17 mph56%30.51 "HgN/A
7:00 PM39 °FPassing clouds.17 mph56%30.51 "HgN/A
6:30 PM39 °FMostly cloudy.18 mph52%30.48 "HgN/A
6:00 PM39 °FMostly cloudy.20 mph56%30.48 "HgN/A
5:30 PM39 °FMostly cloudy.20 mph52%30.48 "HgN/A
5:00 PM39 °FBroken clouds.21 mph48%30.45 "HgN/A
4:30 PM41 °FPartly sunny.21 mph49%30.45 "HgN/A
4:00 PM39 °FMostly cloudy.22 mph61%30.42 "HgN/A
Weather by CustomWeather, © 2016

See weather overviewHow to use our weather pages